Location: Makanda
(37.6176°N, 89.2090°W)
Time: 14:43:04
(UTC+00:00)

Meteor 2-17 Rocket - Pass Details

Date: 23 September 2019
Orbit: 934 x 957 km, 82.5° (Epoch: 18 October)

Event Time Altitude Azimuth Distance (km) Brightness Sun altitude
Rises 01:23:05 0° 354° (N) 3,608 7.8 -18.3°
Reaches altitude 10° 01:25:35 10° 356° (N) 2,657 7.0 -18.8°
Maximum altitude 01:31:40 77° 82° (E) 961 4.3 -19.9°
Enters shadow 01:37:25 11° 169° (S) 2,533 6.4 -21.0°
